Minot AFB, ND

9:53 AM CDT on October 19, 2017 (GMT -0500)
Minot Air Force Base

Weather History for KMIB - November, 2012

Change the Weather History Date:

Wednesday, November 14, 2012

  Actual Average Record
Temperature  
Mean Temperature 22 °F -  
Max Temperature 37 °F 33 °F 62 °F (2001)
Min Temperature 6 °F 16 °F -4 °F (2014)
Degree Days  
Heating Degree Days 44    
Moisture  
Dew Point 7 °F    
Average Humidity 86    
Maximum Humidity 98    
Minimum Humidity 72    
Precipitation  
Precipitation 0.01 in - - ()
Sea Level Pressure  
Sea Level Pressure 30.16 in    
Wind  
Wind Speed 2 mph (SSW)    
Max Wind Speed 23 mph    
Max Gust Speed -    
Visibility 2 miles    
Events Fog , Snow    
Averages and records for this station are not official NWS values.
T = Trace of Precipitation, MM = Missing Value Source: NWS Daily Summary

Daily Weather History Graph

Daily Weather History Graph

Search for Another Location

Airport or City:

Trip Planner

Search our weather history database for the weather conditions in past years. The results will help you decide how hot, cold, wet, or windy it might be!

Date:

Astronomy

Nov. 14, 2012 Rise Set
Actual Time 7:52 AM CST 5:06 PM CST
Civil Twilight 7:18 AM CST 5:41 PM CST
Nautical Twilight 6:40 AM CST 6:19 PM CST
Astronomical Twilight 6:03 AM CST 6:55 PM CST
Moon 8:48 AM CST (11/14) 5:52 PM CST (11/14)
Length of Visible Light 10h 22m
Length of Day
9h 14m
New Moon, 1% of the Moon is Illuminated
Nov 14
New Moon
Nov 20
First Quarter
Nov 28
Full
Dec 6
Last Quarter
Dec 13
New

Hourly Weather History & Observations

Time (CST) Temp. Windchill Dew Point Humidity Pressure Visibility Wind Dir Wind Speed Gust Speed Precip Events Conditions
12:03 AM 10.4 °F - 6.8 °F 85% 30.21 in 0.8 mi Calm Calm - N/A   Mist
12:07 AM 8.6 °F - 6.8 °F 92% 30.20 in 0.5 mi Calm Calm - N/A Fog Light Freezing Fog
12:14 AM 8.6 °F - 6.8 °F 92% 30.21 in 0.2 mi Calm Calm - N/A Fog Light Freezing Fog
12:20 AM 8.6 °F - 6.8 °F 92% 30.20 in 0.2 mi Calm Calm - N/A Fog Light Freezing Fog
12:35 AM 8.6 °F - 6.8 °F 92% 30.20 in 0.2 mi Calm Calm - N/A Fog Light Freezing Fog
12:38 AM 8.6 °F - 6.8 °F 92% 30.20 in 0.2 mi Calm Calm - N/A Fog Light Freezing Fog
12:46 AM 8.6 °F - 6.8 °F 92% 30.21 in 0.2 mi Calm Calm - N/A Fog Light Freezing Fog
12:48 AM 8.6 °F - 5.0 °F 85% 30.21 in 0.2 mi Calm Calm - N/A Fog Light Freezing Fog
12:55 AM 8.4 °F - 5.5 °F 88% 30.20 in 0.2 mi Calm Calm - N/A Fog Light Freezing Fog
12:58 AM 8.6 °F - 5.0 °F 85% 30.20 in 0.2 mi Calm Calm - N/A Fog Light Freezing Fog
1:07 AM 8.6 °F - 5.0 °F 85% 30.20 in 0.2 mi Calm Calm - N/A Fog Light Freezing Fog
1:08 AM 8.6 °F - 5.0 °F 85% 30.20 in 0.2 mi Calm Calm - N/A Fog Light Freezing Fog
1:12 AM 8.6 °F - 5.0 °F 85% 30.20 in 0.5 mi Calm Calm - N/A Fog Light Freezing Fog
1:21 AM 8.6 °F - 5.0 °F 85% 30.19 in 0.5 mi Calm Calm - N/A Fog Light Freezing Fog
1:23 AM 8.6 °F - 5.0 °F 85% 30.19 in 0.5 mi Calm Calm - N/A Fog Light Freezing Fog
1:24 AM 8.6 °F - 5.0 °F 85% 30.19 in 0.5 mi Calm Calm - N/A Fog Light Freezing Fog
1:25 AM 8.6 °F - 5.0 °F 85% 30.19 in 0.8 mi Calm Calm - N/A   Mist
1:28 AM 8.6 °F - 5.0 °F 85% 30.19 in 1.0 mi Calm Calm - N/A   Mist
1:33 AM 6.8 °F - 5.0 °F 92% 30.19 in 0.8 mi Calm Calm - N/A   Mist
1:36 AM 6.8 °F - 5.0 °F 92% 30.19 in 0.8 mi Calm Calm - N/A   Mist
1:39 AM 6.8 °F - 5.0 °F 92% 30.19 in 0.8 mi Calm Calm - N/A   Mist
1:43 AM 6.8 °F - 3.2 °F 85% 30.19 in 1.0 mi Calm Calm - N/A   Mist
1:46 AM 6.8 °F - 3.2 °F 85% 30.19 in 1.2 mi Calm Calm - N/A   Partly Cloudy
1:54 AM 6.8 °F - 3.2 °F 85% 30.19 in 1.5 mi Calm Calm - N/A   Clear
1:55 AM 6.8 °F - 3.7 °F 87% 30.19 in 1.5 mi Calm Calm - N/A   Clear
1:59 AM 6.8 °F - 3.2 °F 85% 30.19 in 2.0 mi Calm Calm - N/A   Clear
2:01 AM 6.8 °F - 3.2 °F 85% 30.19 in 3.0 mi Calm Calm - N/A   Clear
2:55 AM 6.6 °F - 3.6 °F 87% 30.18 in 4.0 mi Calm Calm - N/A   Clear
3:02 AM 6.8 °F - 3.2 °F 85% 30.18 in 4.0 mi Calm Calm - N/A   Clear
3:13 AM 6.8 °F - 3.2 °F 85% 30.18 in 5.0 mi Calm Calm - N/A   Clear
3:19 AM 6.8 °F -0.1 °F 3.2 °F 85% 30.18 in 2.5 mi SSE 3.5 mph - N/A   Clear
3:21 AM 6.8 °F -0.1 °F 3.2 °F 85% 30.18 in 1.8 mi SSE 3.5 mph - N/A   Clear
3:23 AM 6.8 °F -0.1 °F 3.2 °F 85% 30.18 in 1.2 mi SSE 3.5 mph - N/A   Clear
3:25 AM 6.8 °F -0.1 °F 3.2 °F 85% 30.18 in 1.0 mi SSE 3.5 mph - N/A   Clear
3:26 AM 6.8 °F - 3.2 °F 85% 30.18 in 0.8 mi Calm Calm - N/A   Clear
3:28 AM 6.8 °F - 3.2 °F 85% 30.18 in 0.5 mi Calm Calm - N/A Fog Light Freezing Fog
3:32 AM 6.8 °F - 3.2 °F 85% 30.18 in 0.2 mi Calm Calm - N/A Fog Light Freezing Fog
3:35 AM 6.8 °F - 3.2 °F 85% 30.18 in 0.2 mi Calm Calm - N/A Fog Light Freezing Fog
3:42 AM 6.8 °F - 3.2 °F 85% 30.18 in 0.2 mi Calm Calm - N/A Fog Light Freezing Fog
3:48 AM 6.8 °F - 3.2 °F 85% 30.18 in 0.2 mi Calm Calm - N/A Fog Light Freezing Fog
3:49 AM 6.8 °F - 3.2 °F 85% 30.17 in 0.2 mi Calm Calm - N/A Fog Light Freezing Fog
3:52 AM 6.8 °F - 3.2 °F 85% 30.17 in 0.5 mi Calm Calm - N/A Fog Light Freezing Fog
3:55 AM 7.0 °F - 3.9 °F 87% 30.17 in 0.5 mi Calm Calm - N/A Fog Light Freezing Fog
3:56 AM 6.8 °F - 3.2 °F 85% 30.17 in 0.5 mi Calm Calm - N/A Fog Light Freezing Fog
3:57 AM 6.8 °F - 3.2 °F 85% 30.17 in 0.8 mi Calm Calm - N/A   Mist
4:00 AM 6.8 °F - 3.2 °F 85% 30.17 in 1.0 mi Calm Calm - N/A   Mist
4:02 AM 6.8 °F - 3.2 °F 85% 30.17 in 1.2 mi Calm Calm - N/A   Partly Cloudy
4:04 AM 6.8 °F - 3.2 °F 85% 30.17 in 1.5 mi Calm Calm - N/A   Partly Cloudy
4:07 AM 6.8 °F - 3.2 °F 85% 30.17 in 2.0 mi Calm Calm - N/A   Partly Cloudy
4:12 AM 6.8 °F - 5.0 °F 92% 30.17 in 1.8 mi Calm Calm - N/A   Clear
4:14 AM 6.8 °F - 5.0 °F 92% 30.17 in 1.2 mi Calm Calm - N/A   Clear
4:19 AM 8.6 °F - 5.0 °F 85% 30.17 in 0.8 mi Calm Calm - N/A   Clear
4:23 AM 8.6 °F - 5.0 °F 85% 30.17 in 1.0 mi Calm Calm - N/A   Clear
4:29 AM 8.6 °F - 5.0 °F 85% 30.17 in 1.0 mi Calm Calm - N/A   Clear
4:30 AM 8.6 °F - 5.0 °F 85% 30.17 in 1.0 mi Calm Calm - N/A   Clear
4:31 AM 8.6 °F - 5.0 °F 85% 30.17 in 1.2 mi Calm Calm - N/A   Clear
4:34 AM 8.6 °F - 5.0 °F 85% 30.17 in 1.5 mi Calm Calm - N/A   Clear
4:38 AM 8.6 °F - 5.0 °F 85% 30.17 in 2.0 mi Calm Calm - N/A   Clear
4:55 AM 7.5 °F - 4.5 °F 87% 30.16 in 2.5 mi Calm Calm - N/A   Clear
5:05 AM 6.8 °F - 3.2 °F 85% 30.17 in 1.8 mi Calm Calm - N/A   Clear
5:11 AM 6.8 °F - 5.0 °F 92% 30.16 in 2.0 mi Calm Calm - N/A   Clear
5:23 AM 6.8 °F -2.0 °F 5.0 °F 92% 30.15 in 1.5 mi South 4.6 mph - N/A   Clear
5:24 AM 6.8 °F -3.5 °F 5.0 °F 92% 30.16 in 1.2 mi South 5.8 mph - N/A   Clear
5:25 AM 6.8 °F -3.5 °F 5.0 °F 92% 30.15 in 1.0 mi South 5.8 mph - N/A   Clear
5:26 AM 6.8 °F -2.0 °F 5.0 °F 92% 30.16 in 0.8 mi South 4.6 mph - N/A   Clear
5:28 AM 6.8 °F -2.0 °F 5.0 °F 92% 30.16 in 0.5 mi South 4.6 mph - N/A Fog Light Freezing Fog
5:31 AM 6.8 °F -2.0 °F 5.0 °F 92% 30.16 in 0.5 mi South 4.6 mph - N/A Fog Light Freezing Fog
5:32 AM 6.8 °F -3.5 °F 5.0 °F 92% 30.16 in 0.2 mi South 5.8 mph - N/A Fog Light Freezing Fog
5:34 AM 6.8 °F -2.0 °F 5.0 °F 92% 30.16 in 0.2 mi South 4.6 mph - N/A Fog Light Freezing Fog
5:35 AM 6.8 °F -2.0 °F 3.2 °F 85% 30.16 in 0.2 mi South 4.6 mph - N/A Fog Light Freezing Fog
5:36 AM 6.8 °F -2.0 °F 3.2 °F 85% 30.16 in 0.2 mi South 4.6 mph - N/A Fog Light Freezing Fog
5:37 AM 6.8 °F -2.0 °F 3.2 °F 85% 30.16 in 0.2 mi South 4.6 mph - N/A Fog Light Freezing Fog
5:38 AM 6.8 °F -0.1 °F 3.2 °F 85% 30.16 in 0.2 mi South 3.5 mph - N/A Fog Light Freezing Fog
5:39 AM 6.8 °F -0.1 °F 3.2 °F 85% 30.16 in 0.5 mi South 3.5 mph - N/A Fog Light Freezing Fog
5:43 AM 6.8 °F -3.5 °F 3.2 °F 85% 30.16 in 0.8 mi South 5.8 mph - N/A   Clear
5:44 AM 6.8 °F -3.5 °F 3.2 °F 85% 30.16 in 1.0 mi South 5.8 mph - N/A   Clear
5:45 AM 6.8 °F -3.5 °F 3.2 °F 85% 30.15 in 1.2 mi South 5.8 mph - N/A   Clear
5:46 AM 6.8 °F -3.5 °F 3.2 °F 85% 30.15 in 1.8 mi South 5.8 mph - N/A   Clear
5:47 AM 6.8 °F -3.5 °F 3.2 °F 85% 30.15 in 2.0 mi South 5.8 mph - N/A   Clear
5:48 AM 6.8 °F -3.5 °F 5.0 °F 92% 30.15 in 1.5 mi South 5.8 mph - N/A   Clear
5:49 AM 6.8 °F -2.0 °F 5.0 °F 92% 30.15 in 1.0 mi South 4.6 mph - N/A   Clear
5:50 AM 6.8 °F -2.0 °F 5.0 °F 92% 30.15 in 0.8 mi South 4.6 mph - N/A   Clear
5:52 AM 6.8 °F -2.0 °F 5.0 °F 92% 30.15 in 0.5 mi South 4.6 mph - N/A Fog Light Freezing Fog
5:55 AM 7.7 °F -0.9 °F 4.8 °F 88% 30.15 in 0.5 mi South 4.6 mph - N/A Fog Light Freezing Fog
5:59 AM 8.6 °F 2.0 °F 5.0 °F 85% 30.15 in 0.8 mi South 3.5 mph - N/A   Clear
6:01 AM 8.6 °F 2.0 °F 5.0 °F 85% 30.15 in 1.0 mi South 3.5 mph - N/A   Clear
6:02 AM 8.6 °F 2.0 °F 5.0 °F 85% 30.15 in 1.5 mi South 3.5 mph - N/A   Clear
6:03 AM 6.8 °F -0.1 °F 5.0 °F 92% 30.15 in 2.0 mi South 3.5 mph - N/A   Clear
6:06 AM 6.8 °F -2.0 °F 3.2 °F 85% 30.15 in 3.0 mi SSW 4.6 mph - N/A   Clear
6:12 AM 6.8 °F -3.5 °F 3.2 °F 85% 30.15 in 4.0 mi South 5.8 mph - N/A   Clear
6:55 AM 7.7 °F - 5.0 °F 89% 30.14 in 5.0 mi Calm Calm - N/A   Clear
6:58 AM 8.6 °F - 5.0 °F 85% 30.14 in 5.0 mi Calm Calm - N/A   Clear
7:06 AM 8.6 °F - 5.0 °F 85% 30.14 in 5.0 mi Calm Calm - N/A   Clear
7:17 AM 8.6 °F - 5.0 °F 85% 30.14 in 5.0 mi Calm Calm - N/A   Clear
7:27 AM 8.6 °F - 5.0 °F 85% 30.14 in 4.0 mi Calm Calm - N/A   Clear
7:28 AM 8.6 °F - 6.8 °F 92% 30.14 in 4.0 mi Calm Calm - N/A   Clear
7:39 AM 10.4 °F 4.0 °F 6.8 °F 85% 30.13 in 2.5 mi SSE 3.5 mph - N/A   Clear
7:47 AM 8.6 °F 2.0 °F 6.8 °F 92% 30.14 in 3.0 mi SSE 3.5 mph - N/A Snow Light Snow
7:55 AM 10.8 °F - 8.6 °F 91% 30.14 in 4.0 mi Calm Calm - 0.00 in   Clear
8:55 AM 13.5 °F 7.5 °F 11.5 °F 92% 30.13 in 7.0 mi South 3.5 mph - N/A   Clear
9:55 AM 16.5 °F 11.0 °F 14.5 °F 92% 30.12 in 10.0 mi SSE 3.5 mph - N/A   Clear
10:55 AM 26.1 °F 19.4 °F 25.5 °F 98% 30.10 in 10.0 mi SSW 5.8 mph - N/A   Clear
11:55 AM 33.8 °F 25.3 °F 29.5 °F 84% 30.06 in 10.0 mi SW 11.5 mph - 0.01 in   Clear
12:55 PM 35.2 °F 27.1 °F 29.1 °F 78% 30.05 in 10.0 mi SW 11.5 mph - N/A   Overcast
1:55 PM 37.4 °F 31.4 °F 29.1 °F 72% 30.04 in 10.0 mi WSW 8.1 mph - N/A   Mostly Cloudy
2:55 PM 37.2 °F - 29.1 °F 73% 30.03 in 10.0 mi Calm Calm - N/A   Mostly Cloudy
3:55 PM 36.9 °F - 29.1 °F 74% 30.02 in 10.0 mi Calm Calm - N/A   Clear
4:55 PM 35.2 °F 26.6 °F 28.4 °F 76% 30.02 in 10.0 mi WSW 12.7 mph - N/A   Clear
5:55 PM 34.9 °F 25.7 °F 28.0 °F 76% 30.02 in 10.0 mi WSW 13.8 mph - N/A   Clear
6:55 PM 35.1 °F 26.4 °F 28.2 °F 76% 30.03 in 10.0 mi West 12.7 mph - N/A   Clear
7:55 PM 32.5 °F 23.7 °F 26.8 °F 79% 30.05 in 10.0 mi West 11.5 mph - N/A   Clear
8:55 PM 31.6 °F 21.6 °F 25.9 °F 79% 30.06 in 10.0 mi West 13.8 mph - N/A   Clear
9:55 PM 30.4 °F 20.0 °F 25.0 °F 80% 30.09 in 10.0 mi West 13.8 mph - N/A   Clear
10:55 PM 31.3 °F 18.9 °F 24.8 °F 77% 30.10 in 10.0 mi WNW 20.7 mph - N/A   Clear
11:55 PM 28.8 °F 14.9 °F 23.5 °F 81% 30.13 in 10.0 mi WNW 23.0 mph - N/A   Clear